Tracking 19800 objects as of 24-Jul-2019
HD Live streaming from Space Station
objects crossing your sky now

NOAA 16 DEB

Track NOAA 16 DEB now!
10-day predictions


NORAD ID: 42368
Int'l Code: 2000-055RL
Perigee: 851.2 km
Apogee: 871.6 km
Inclination: 98.9 °
Period: 102.0 minutes
Semi major axis: 7232 km
RCS: Unknown
Launch date: September 21, 2000
Source: United States (US)
Launch site: AIR FORCE WESTERN TEST RANGE (AFWTR)

Note: This is SATELLITE DEBRIS
aabbcc
Your satellite tracking list
Your tracking list is empty




NASA's NSSDC Master Catalog

Two Line Element Set (TLE):
1 42368U 00055RL  19204.66702800 +.00000324 +00000-0 +20251-3 0  9990
2 42368 098.8632 278.3490 0014083 078.0556 282.2194 14.11488652170287
Source of the keplerian elements: AFSPC